Location: Congrier
(47.8099°N, 1.1170°W)
Time: 16:00:13
(UTC+00:00)

NOSS 3-3 (C) - Pass Details

Date: 13 August 2024
Orbit: 733 x 1482 km, 63.4° (Epoch: 18 September)

Event Time Altitude Azimuth Distance (km) Brightness Sun altitude
Exits shadow 02:15:53 - 142° (SE) 2,578 6.0 -21.6°
Reaches altitude 10° 02:17:02 10° 132° (SE) 2,370 5.9 -21.4°
Maximum altitude 02:19:30 13° 104° (ESE) 2,222 6.1 -21.2°
Drops below altitude 10° 02:22:06 10° 77° (ENE) 2,539 6.8 -21.0°
Sets 02:26:13 0° 52° (NE) 3,647 8.3 -20.6°
